sat.trackr.live / text

‹ back to catalog

COSMOS 2541

NORAD 44552 · 2019-065A

PAYLOAD ACTIVE UNKNOWN

§ Identity

Operator
Country
CIS
Launch date
2019-09-26
Launch site
PLMSC
Launch vehicle
Mass (kg)
RCS (m²)

External: N2YO · Heavens-Above · Gunter

§ Orbital elements

Epoch: 2026-05-24T08:16:03.351072Z

Period
717.79 min
Inclination
62.7116°
Eccentricity
0.6488260
Mean motion
2.00616985 rev/d
Perigee alt
2,947.5 km
Apogee alt
37,407.5 km
Semi-major
26,555.6 km
B*
0.0000e+0
RAAN
159.1737°
Arg perigee
272.1353°
Mean anomaly
20.3581°
Rev number
4,874

§ Raw data

COSMOS 25411 44552U 19065A   26144.34448323  .00000175  00000+0  00000+0 0  99902 44552  62.7116 159.1737 6488260 272.1353  20.3581  2.00616985 48744

JSON: /api/v1/satellites/44552 · /tle

For live sub-satellite position, see the globe view (requires WebGL).

§ Visibility from observer

Set your observer location to see the next 7 days of passes ≥ 10°. The values pass through the URL so the page stays shareable.

No JS? Fill the form by hand. The geolocation button needs JavaScript.